User: anonymous   Login
Location: Caltech
(34.1382°N, 118.1253°W)
Time: 09:12:10
(UTC-07:00)
Language:

Cosmos 1943 Rocket - Orbit

View from above orbital plane
View from above orbital plane
View from above satellite
View from above satellite

Ground track
Ground track

The orbit data is extracted from the following two-line orbital elements,

1 19120U 88039B   15211.43072701 -.00000165  00000-0 -55585-4 0  9991
2 19120 071.0164 338.0539 0021313 168.4010 191.7611 14.19114251408811
Epoch (UTC): 30 July 2015 10:20:14
Eccentricity: 0.0021313
inclination: 71.0164°
perigee height: 813 km
apogee height: 844 km
right ascension of ascending node: 338.0539°
argument of perigee: 168.4010°
revolutions per day: 14.19114251
mean anomaly at epoch: 191.7611°
orbit number at epoch: 40881

The dashed part of the orbit path shows where the satellite is in the earth's shadow,  

DLR